| time (UTC) | temp F | wind direction | speed MPH | gust MPH | rain 1hr in | rain 24hr in | rain mn in | humidity % | barometer mb |
| 20260906110047 | 71 | 360 | 2.0 | 8.0 | 0.00 | 0.00 | 0.00 | 86 | 1020.4 |
| 20260906104542 | 71 | 360 | 4.0 | 9.0 | 0.00 | 0.00 | 0.00 | 85 | 1020.2 |
| 20260906103054 | 72 | 360 | 3.0 | 9.0 | 0.00 | 0.00 | 0.00 | 85 | 1020.0 |
| 20260906101547 | 72 | 360 | 2.0 | 5.0 | 0.00 | 0.00 | 0.00 | 84 | 1020.0 |
| 20260906100046 | 72 | 360 | 3.0 | 8.0 | 0.00 | 0.00 | 0.00 | 84 | 1020.0 |
| 20260906094541 | 73 | 360 | 3.0 | 6.0 | 0.00 | 0.00 | 0.00 | 83 | 1019.9 |
| 20260906093105 | 73 | 360 | 3.0 | 8.0 | 0.00 | 0.00 | 0.00 | 83 | 1019.8 |
| 20260906091555 | 73 | 360 | 2.0 | 8.0 | 0.00 | 0.00 | 0.00 | 83 | 1019.8 |
| 20260906090049 | 73 | 360 | 3.0 | 6.0 | 0.00 | 0.00 | 0.00 | 83 | 1019.7 |
| 20260906084541 | 73 | 360 | 1.0 | 6.0 | 0.00 | 0.00 | 0.00 | 83 | 1019.8 |
| 20260906083052 | 73 | 360 | 2.0 | 9.0 | 0.00 | 0.00 | 0.00 | 82 | 1019.7 |
| 20260906081554 | 73 | 360 | 2.0 | 8.0 | 0.00 | 0.00 | 0.00 | 82 | 1019.7 |
| 20260906080048 | 73 | 360 | 2.0 | 5.0 | 0.00 | 0.00 | 0.00 | 84 | 1019.8 |
| 20260906074542 | 73 | 360 | 2.0 | 5.0 | 0.00 | 0.00 | 0.00 | 84 | 1019.8 |
| 20260906073041 | 73 | 360 | 4.0 | 9.0 | 0.00 | 0.00 | 0.00 | 84 | 1019.7 |
| 20260906071559 | 73 | 360 | 2.0 | 9.0 | 0.00 | 0.00 | 0.00 | 84 | 1019.9 |
| 20260906070050 | 73 | 360 | 3.0 | 9.0 | 0.00 | 0.00 | 0.00 | 85 | 1019.8 |
| 20260906064544 | 73 | 360 | 2.0 | 6.0 | 0.00 | 0.00 | 0.00 | 84 | 1019.8 |
| 20260906063043 | 73 | 360 | 3.0 | 9.0 | 0.00 | 0.00 | 0.00 | 84 | 1019.9 |
| 20260906061550 | 73 | 360 | 2.0 | 9.0 | 0.00 | 0.00 | 0.00 | 86 | 1019.9 |
| 20260906060050 | 73 | 360 | 4.0 | 9.0 | 0.00 | 0.00 | 0.00 | 87 | 1019.9 |
| 20260906054546 | 73 | 360 | 1.0 | 8.0 | 0.00 | 0.00 | 0.00 | 87 | 1019.7 |
| 20260906053042 | 73 | 360 | 3.0 | 6.0 | 0.00 | 0.00 | 0.00 | 88 | 1019.7 |
| 20260906051553 | 72 | 360 | 4.0 | 9.0 | 0.00 | 0.00 | 0.00 | 88 | 1019.4 |
| 20260906050111 | 72 | 360 | 3.0 | 10.0 | 0.00 | 0.00 | 0.00 | 88 | 1019.5 |
| 20260906044542 | 72 | 360 | 3.0 | 8.0 | 0.00 | 0.00 | 0.00 | 88 | 1019.3 |
| 20260906043101 | 72 | 360 | 3.0 | 10.0 | 0.00 | 0.00 | 0.00 | 88 | 1019.1 |
| 20260906041549 | 72 | 360 | 2.0 | 10.0 | 0.00 | 0.00 | 0.00 | 88 | 1018.9 |
| 20260906040048 | 73 | 360 | 2.0 | 9.0 | 0.00 | 0.00 | 0.00 | 87 | 1018.8 |
| 20260906034545 | 73 | 360 | 4.0 | 12.0 | 0.00 | 0.00 | 0.00 | 87 | 1018.8 |
| 20260906033052 | 73 | 360 | 5.0 | 11.0 | 0.00 | 0.00 | 0.00 | 87 | 1018.9 |
| 20260906031548 | 73 | 360 | 5.0 | 17.0 | 0.00 | 0.00 | 0.00 | 87 | 1018.9 |
| 20260906030043 | 73 | 360 | 4.0 | 15.0 | 0.00 | 0.00 | 0.00 | 86 | 1018.9 |
| 20260906024553 | 73 | 360 | 4.0 | 11.0 | 0.00 | 0.00 | 0.00 | 86 | 1018.7 |
| 20260906023047 | 73 | 19 | 4.0 | 19.0 | 0.00 | 0.00 | 0.00 | 86 | 1018.8 |
| 20260906021607 | 73 | 360 | 5.0 | 12.0 | 0.00 | 0.00 | 0.00 | 85 | 1018.9 |
| 20260906020053 | 73 | 17 | 3.0 | 11.0 | 0.00 | 0.00 | 0.00 | 85 | 1019.1 |
| 20260906014546 | 73 | 360 | 4.0 | 13.0 | 0.00 | 0.00 | 0.00 | 85 | 1019.0 |
| 20260906013044 | 73 | 360 | 5.0 | 12.0 | 0.00 | 0.00 | 0.00 | 85 | 1019.0 |
| 20260906011542 | 73 | 360 | 5.0 | 13.0 | 0.00 | 0.00 | 0.00 | 85 | 1018.8 |
| 20260906010053 | 73 | 360 | 4.0 | 11.0 | 0.00 | 0.00 | 0.00 | 86 | 1018.5 |
| 20260906004547 | 73 | 360 | 5.0 | 16.0 | 0.00 | 0.00 | 0.00 | 86 | 1018.4 |
| 20260906003045 | 73 | 360 | 5.0 | 12.0 | 0.00 | 0.00 | 0.00 | 86 | 1018.2 |
| 20260906001542 | 73 | 360 | 5.0 | 17.0 | 0.00 | 0.00 | 0.00 | 86 | 1018.3 |
| 20260906000052 | 73 | 360 | 5.0 | 12.0 | 0.00 | 0.00 | 0.00 | 85 | 1018.2 |
| 20260905234554 | 73 | 360 | 8.0 | 16.0 | 0.00 | 0.00 | 0.00 | 85 | 1018.4 |
| 20260905233043 | 73 | 360 | 6.0 | 17.0 | 0.00 | 0.00 | 0.00 | 84 | 1018.3 |
| 20260905231552 | 73 | 360 | 6.0 | 13.0 | 0.00 | 0.00 | 0.00 | 84 | 1018.2 |
| 20260905230053 | 73 | 360 | 7.0 | 16.0 | 0.00 | 0.00 | 0.00 | 85 | 1017.9 |
| 20260905224544 | 74 | 360 | 7.0 | 17.0 | 0.00 | 0.00 | 0.00 | 84 | 1018.0 |
| 20260905223043 | 75 | 360 | 6.0 | 16.0 | 0.00 | 0.00 | 0.00 | 83 | 1018.1 |
| 20260905221547 | 76 | 360 | 4.0 | 15.0 | 0.00 | 0.00 | 0.00 | 83 | 1017.8 |
| 20260905220049 | 76 | 26 | 5.0 | 14.0 | 0.00 | 0.00 | 0.00 | 82 | 1017.7 |
| 20260905214545 | 76 | 360 | 7.0 | 14.0 | 0.00 | 0.00 | 0.00 | 81 | 1017.6 |
| 20260905213050 | 77 | 360 | 5.0 | 12.0 | 0.00 | 0.00 | 0.00 | 80 | 1017.3 |
| 20260905211548 | 78 | 360 | 7.0 | 14.0 | 0.00 | 0.00 | 0.00 | 79 | 1017.4 |
| 20260905210048 | 78 | 360 | 7.0 | 13.0 | 0.00 | 0.00 | 0.00 | 78 | 1017.4 |
| 20260905204552 | 79 | 360 | 7.0 | 17.0 | 0.00 | 0.00 | 0.00 | 76 | 1017.3 |
| 20260905203048 | 79 | 360 | 5.0 | 17.0 | 0.00 | 0.00 | 0.00 | 78 | 1017.3 |
| 20260905201547 | 79 | 360 | 6.0 | 13.0 | 0.00 | 0.00 | 0.00 | 76 | 1017.4 |
| 20260905200047 | 80 | 360 | 5.0 | 14.0 | 0.00 | 0.00 | 0.00 | 76 | 1017.5 |
| 20260905194555 | 79 | 360 | 6.0 | 14.0 | 0.00 | 0.00 | 0.00 | 77 | 1017.6 |
| 20260905193047 | 79 | 360 | 7.0 | 13.0 | 0.00 | 0.00 | 0.00 | 76 | 1017.7 |
| 20260905191548 | 80 | 360 | 6.0 | 17.0 | 0.00 | 0.00 | 0.00 | 75 | 1017.7 |
| 20260905190044 | 80 | 360 | 5.0 | 13.0 | 0.00 | 0.00 | 0.00 | 75 | 1017.7 |
| 20260905184602 | 80 | 360 | 5.0 | 14.0 | 0.00 | 0.00 | 0.00 | 75 | 1017.8 |
| 20260905183051 | 80 | 360 | 5.0 | 15.0 | 0.00 | 0.00 | 0.00 | 76 | 1017.9 |
| 20260905181548 | 80 | 360 | 6.0 | 13.0 | 0.00 | 0.00 | 0.00 | 76 | 1017.9 |
| 20260905180050 | 79 | 350 | 4.0 | 13.0 | 0.00 | 0.00 | 0.00 | 78 | 1017.6 |
| 20260905174549 | 79 | 20 | 5.0 | 13.0 | 0.00 | 0.00 | 0.00 | 77 | 1017.7 |
| 20260905173100 | 79 | 360 | 5.0 | 16.0 | 0.00 | 0.00 | 0.00 | 79 | 1017.6 |
| 20260905171547 | 80 | 360 | 5.0 | 12.0 | 0.00 | 0.00 | 0.00 | 78 | 1017.7 |
| 20260905170048 | 79 | 329 | 4.0 | 14.0 | 0.00 | 0.00 | 0.00 | 78 | 1017.9 |
| 20260905164543 | 78 | 360 | 6.0 | 13.0 | 0.00 | 0.00 | 0.00 | 79 | 1017.8 |
| 20260905163052 | 79 | 360 | 6.0 | 14.0 | 0.00 | 0.00 | 0.00 | 79 | 1017.9 |
| 20260905161548 | 78 | 360 | 4.0 | 11.0 | 0.00 | 0.00 | 0.00 | 80 | 1017.8 |
| 20260905160052 | 78 | 21 | 4.0 | 12.0 | 0.00 | 0.00 | 0.00 | 81 | 1017.6 |
| 20260905154555 | 79 | 360 | 6.0 | 12.0 | 0.00 | 0.00 | 0.00 | 80 | 1017.6 |
| 20260905153054 | 79 | 360 | 6.0 | 13.0 | 0.00 | 0.00 | 0.00 | 80 | 1017.4 |
| 20260905151547 | 79 | 360 | 5.0 | 15.0 | 0.00 | 0.00 | 0.00 | 81 | 1017.2 |
| 20260905150042 | 78 | 360 | 4.0 | 12.0 | 0.00 | 0.00 | 0.00 | 81 | 1017.2 |
| 20260905144552 | 78 | 360 | 4.0 | 12.0 | 0.00 | 0.00 | 0.00 | 82 | 1016.9 |
| 20260905143052 | 78 | 66 | 5.0 | 13.0 | 0.00 | 0.00 | 0.00 | 83 | 1016.9 |
| 20260905141608 | 77 | 360 | 3.0 | 10.0 | 0.00 | 0.00 | 0.00 | 86 | 1016.8 |
| 20260905140053 | 77 | 360 | 5.0 | 12.0 | 0.00 | 0.00 | 0.00 | 87 | 1016.7 |
| 20260905134551 | 77 | 360 | 5.0 | 10.0 | 0.00 | 0.00 | 0.00 | 88 | 1016.8 |
| 20260905133055 | 76 | 360 | 4.0 | 9.0 | 0.00 | 0.00 | 0.00 | 90 | 1017.1 |
| 20260905131555 | 76 | 360 | 4.0 | 10.0 | 0.00 | 0.00 | 0.00 | 91 | 1016.6 |
| 20260905130041 | 75 | 360 | 2.0 | 6.0 | 0.00 | 0.00 | 0.00 | 92 | 1016.5 |
| 20260905124551 | 74 | 360 | 2.0 | 6.0 | 0.00 | 0.00 | 0.00 | 92 | 1016.3 |
| 20260905123048 | 74 | 360 | 1.0 | 9.0 | 0.00 | 0.00 | 0.00 | 93 | 1016.1 |
| 20260905121542 | 74 | 360 | 4.0 | 8.0 | 0.00 | 0.00 | 0.00 | 92 | 1016.1 |
| 20260905120050 | 74 | 360 | 2.0 | 5.0 | 0.00 | 0.00 | 0.00 | 92 | 1016.1 |
| 20260905114622 | 74 | 360 | 3.0 | 6.0 | 0.00 | 0.00 | 0.00 | 92 | 1015.9 |
| 20260905113048 | 74 | 360 | 2.0 | 8.0 | 0.00 | 0.00 | 0.00 | 91 | 1015.6 |
| 20260905111549 | 74 | 360 | 1.0 | 9.0 | 0.00 | 0.00 | 0.00 | 90 | 1015.3 |